Year,Month,Day,Hour,Minute,Value (Times are PST for temperature in C)
2020,03,06,00,00,1.40
2020,03,06,00,01,1.40
2020,03,06,00,02,1.40
2020,03,06,00,03,1.40
2020,03,06,00,04,1.30
2020,03,06,00,05,1.30
2020,03,06,00,06,1.30
2020,03,06,00,07,1.30
2020,03,06,00,08,1.30
2020,03,06,00,09,1.30
2020,03,06,00,10,1.20
2020,03,06,00,11,1.20
2020,03,06,00,12,1.20
2020,03,06,00,13,1.20
2020,03,06,00,14,1.20
2020,03,06,00,15,1.30
2020,03,06,00,16,1.30
2020,03,06,00,17,1.30
2020,03,06,00,18,1.30
2020,03,06,00,19,1.30
2020,03,06,00,20,1.40
2020,03,06,00,21,1.40
2020,03,06,00,22,1.40
2020,03,06,00,23,1.50
2020,03,06,00,24,1.60
2020,03,06,00,25,1.60
2020,03,06,00,26,1.60
2020,03,06,00,27,1.60
2020,03,06,00,28,1.60
2020,03,06,00,29,1.60
2020,03,06,00,30,1.60
2020,03,06,00,31,1.60
2020,03,06,00,32,1.60
2020,03,06,00,33,1.50
2020,03,06,00,34,1.50
2020,03,06,00,35,1.40
2020,03,06,00,36,1.40
2020,03,06,00,37,1.30
2020,03,06,00,38,1.30
2020,03,06,00,39,1.20
2020,03,06,00,40,1.20
2020,03,06,00,41,1.10
2020,03,06,00,42,1.10
2020,03,06,00,43,1.00
2020,03,06,00,44,1.00
2020,03,06,00,45,1.00
2020,03,06,00,46,1.00
2020,03,06,00,47,1.00
2020,03,06,00,48,0.90
2020,03,06,00,49,0.90
2020,03,06,00,50,0.90
2020,03,06,00,51,1.00
2020,03,06,00,52,1.00
2020,03,06,00,53,1.00
2020,03,06,00,54,1.00
2020,03,06,00,55,1.00
2020,03,06,00,56,1.00
2020,03,06,00,57,1.00
2020,03,06,00,58,1.00
2020,03,06,00,59,1.00
2020,03,06,01,00,1.00
2020,03,06,01,01,1.00
2020,03,06,01,02,1.10
2020,03,06,01,03,1.10
2020,03,06,01,04,1.10
2020,03,06,01,05,1.10
2020,03,06,01,06,1.10
2020,03,06,01,07,1.00
2020,03,06,01,08,1.00
2020,03,06,01,09,1.00
2020,03,06,01,10,0.90
2020,03,06,01,11,0.90
2020,03,06,01,12,0.90
2020,03,06,01,13,0.90
2020,03,06,01,14,0.90
2020,03,06,01,15,0.90
2020,03,06,01,16,0.90
2020,03,06,01,17,0.90
2020,03,06,01,18,0.90
2020,03,06,01,19,0.90
2020,03,06,01,20,0.90
2020,03,06,01,21,0.90
2020,03,06,01,22,0.90
2020,03,06,01,23,0.90
2020,03,06,01,24,0.90
2020,03,06,01,25,0.90
2020,03,06,01,26,0.90
2020,03,06,01,27,0.90
2020,03,06,01,28,0.90
2020,03,06,01,29,0.90
2020,03,06,01,30,0.90
2020,03,06,01,31,0.90
2020,03,06,01,32,0.90
2020,03,06,01,33,0.90
2020,03,06,01,34,0.90
2020,03,06,01,35,0.90
2020,03,06,01,36,0.90
2020,03,06,01,37,0.90
2020,03,06,01,38,0.80
2020,03,06,01,39,0.80
2020,03,06,01,40,0.70
2020,03,06,01,41,0.60
2020,03,06,01,42,0.60
2020,03,06,01,43,0.50
2020,03,06,01,44,0.30
2020,03,06,01,45,0.30
2020,03,06,01,46,0.20
2020,03,06,01,47,0.10
2020,03,06,01,48,0.10
2020,03,06,01,49,0.00
2020,03,06,01,50,0.00
2020,03,06,01,51,-0.10
2020,03,06,01,52,-0.10
2020,03,06,01,53,-0.10
2020,03,06,01,54,-0.20
2020,03,06,01,55,-0.30
2020,03,06,01,56,-0.30
2020,03,06,01,57,-0.40
2020,03,06,01,58,-0.50
2020,03,06,01,59,-0.60
2020,03,06,02,00,-0.70
2020,03,06,02,01,-0.70
2020,03,06,02,02,-0.80
2020,03,06,02,03,-0.80
2020,03,06,02,04,-0.90
2020,03,06,02,05,-0.90
2020,03,06,02,06,-1.00
2020,03,06,02,07,-1.00
2020,03,06,02,08,-1.00
2020,03,06,02,09,-0.90
2020,03,06,02,10,-0.80
2020,03,06,02,11,-0.70
2020,03,06,02,12,-0.80
2020,03,06,02,13,-0.80
2020,03,06,02,14,-0.80
2020,03,06,02,15,-0.80
2020,03,06,02,16,-0.90
2020,03,06,02,17,-0.90
2020,03,06,02,18,-0.90
2020,03,06,02,19,-0.80
2020,03,06,02,20,-0.80
2020,03,06,02,21,-0.80
2020,03,06,02,22,-0.80
2020,03,06,02,23,-0.80
2020,03,06,02,24,-0.90
2020,03,06,02,25,-0.90
2020,03,06,02,26,-0.90
2020,03,06,02,27,-1.00
2020,03,06,02,28,-1.00
2020,03,06,02,29,-1.10
2020,03,06,02,30,-1.20
2020,03,06,02,31,-1.20
2020,03,06,02,32,-1.30
2020,03,06,02,33,-1.40
2020,03,06,02,34,-1.40
2020,03,06,02,35,-1.50
2020,03,06,02,36,-1.50
2020,03,06,02,37,-1.60
2020,03,06,02,38,-1.70
2020,03,06,02,39,-1.70
2020,03,06,02,40,-1.80
2020,03,06,02,41,-1.80
2020,03,06,02,42,-1.80
2020,03,06,02,43,-1.80
2020,03,06,02,44,-1.80
2020,03,06,02,45,-1.80
2020,03,06,02,46,-1.90
2020,03,06,02,47,-1.90
2020,03,06,02,48,-1.90
2020,03,06,02,49,-1.90
2020,03,06,02,50,-1.90
2020,03,06,02,51,-1.90
2020,03,06,02,52,-1.90
2020,03,06,02,53,-1.90
2020,03,06,02,54,-2.00
2020,03,06,02,55,-2.00
2020,03,06,02,56,-2.00
2020,03,06,02,57,-2.10
2020,03,06,02,58,-2.10
2020,03,06,02,59,-2.10
2020,03,06,03,00,-2.10
2020,03,06,03,01,-2.10
2020,03,06,03,02,-2.00
2020,03,06,03,03,-2.10
2020,03,06,03,04,-2.10
2020,03,06,03,05,-2.10
2020,03,06,03,06,-2.10
2020,03,06,03,07,-2.10
2020,03,06,03,08,-2.10
2020,03,06,03,09,-2.10
2020,03,06,03,10,-2.10
2020,03,06,03,11,-2.10
2020,03,06,03,12,-2.10
2020,03,06,03,13,-2.10
2020,03,06,03,14,-2.10
2020,03,06,03,15,-2.10
2020,03,06,03,16,-2.10
2020,03,06,03,17,-2.10
2020,03,06,03,18,-2.00
2020,03,06,03,19,-2.00
2020,03,06,03,20,-1.90
2020,03,06,03,21,-1.90
2020,03,06,03,22,-1.80
2020,03,06,03,23,-1.80
2020,03,06,03,24,-1.80
2020,03,06,03,25,-1.80
2020,03,06,03,26,-1.80
2020,03,06,03,27,-1.80
2020,03,06,03,28,-1.90
2020,03,06,03,29,-1.90
2020,03,06,03,30,-1.90
2020,03,06,03,31,-1.90
2020,03,06,03,32,-1.90
2020,03,06,03,33,-1.90
2020,03,06,03,34,-1.90
2020,03,06,03,35,-2.00
2020,03,06,03,36,-2.00
2020,03,06,03,37,-2.00
2020,03,06,03,38,-2.10
2020,03,06,03,39,-2.10
2020,03,06,03,40,-2.10
2020,03,06,03,41,-2.10
2020,03,06,03,42,-2.10
2020,03,06,03,43,-2.10
2020,03,06,03,44,-2.10
2020,03,06,03,45,-2.00
2020,03,06,03,46,-1.90
2020,03,06,03,47,-1.80
2020,03,06,03,48,-1.80
2020,03,06,03,49,-1.80
2020,03,06,03,50,-1.70
2020,03,06,03,51,-1.70
2020,03,06,03,52,-1.70
2020,03,06,03,53,-1.70
2020,03,06,03,54,-1.70
2020,03,06,03,55,-1.70
2020,03,06,03,56,-1.80
2020,03,06,03,57,-1.80
2020,03,06,03,58,-1.80
2020,03,06,03,59,-1.80
2020,03,06,04,00,-1.80
2020,03,06,04,01,-1.80
2020,03,06,04,02,-1.80
2020,03,06,04,03,-1.80
2020,03,06,04,04,-1.80
2020,03,06,04,05,-1.80
2020,03,06,04,06,-1.80
2020,03,06,04,07,-1.80
2020,03,06,04,08,-1.80
2020,03,06,04,09,-1.80
2020,03,06,04,10,-1.90
2020,03,06,04,11,-1.90
2020,03,06,04,12,-1.90
2020,03,06,04,13,-1.90
2020,03,06,04,14,-1.90
2020,03,06,04,15,-1.90
2020,03,06,04,16,-1.90
2020,03,06,04,17,-1.90
2020,03,06,04,18,-1.90
2020,03,06,04,19,-1.90
2020,03,06,04,20,-1.90
2020,03,06,04,21,-1.90
2020,03,06,04,22,-1.90
2020,03,06,04,23,-2.00
2020,03,06,04,24,-2.00
2020,03,06,04,25,-2.10
2020,03,06,04,26,-2.10
2020,03,06,04,27,-2.10
2020,03,06,04,28,-2.00
2020,03,06,04,29,-2.00
2020,03,06,04,30,-2.00
2020,03,06,04,31,-2.00
2020,03,06,04,32,-2.00
2020,03,06,04,33,-2.00
2020,03,06,04,34,-1.90
2020,03,06,04,35,-1.90
2020,03,06,04,36,-1.90
2020,03,06,04,37,-1.90
2020,03,06,04,38,-1.90
2020,03,06,04,39,-1.90
2020,03,06,04,40,-1.90
2020,03,06,04,41,-1.90
2020,03,06,04,42,-1.90
2020,03,06,04,43,-1.80
2020,03,06,04,44,-1.80
2020,03,06,04,45,-1.80
2020,03,06,04,46,-1.80
2020,03,06,04,47,-1.80
2020,03,06,04,48,-1.80
2020,03,06,04,49,-1.80
2020,03,06,04,50,-1.80
2020,03,06,04,51,-1.80
2020,03,06,04,52,-1.80
2020,03,06,04,53,-1.70
2020,03,06,04,54,-1.70
2020,03,06,04,55,-1.70
2020,03,06,04,56,-1.70
2020,03,06,04,57,-1.70
2020,03,06,04,58,-1.70
2020,03,06,04,59,-1.60
2020,03,06,05,00,-1.60
2020,03,06,05,01,-1.60
2020,03,06,05,02,-1.60
2020,03,06,05,03,-1.60
2020,03,06,05,04,-1.50
2020,03,06,05,05,-1.50
2020,03,06,05,06,-1.50
2020,03,06,05,07,-1.50
2020,03,06,05,08,-1.50
2020,03,06,05,09,-1.50
2020,03,06,05,10,-1.50
2020,03,06,05,11,-1.50
2020,03,06,05,12,-1.50
2020,03,06,05,13,-1.50
2020,03,06,05,14,-1.40
2020,03,06,05,15,-1.40
2020,03,06,05,16,-1.40
2020,03,06,05,17,-1.40
2020,03,06,05,18,-1.40
2020,03,06,05,19,-1.40
2020,03,06,05,20,-1.40
2020,03,06,05,21,-1.50
2020,03,06,05,22,-1.50
2020,03,06,05,23,-1.50
2020,03,06,05,24,-1.50
2020,03,06,05,25,-1.50
2020,03,06,05,26,-1.60
2020,03,06,05,27,-1.50
2020,03,06,05,28,-1.50
2020,03,06,05,29,-1.50
2020,03,06,05,30,-1.50
2020,03,06,05,31,-1.60
2020,03,06,05,32,-1.60
2020,03,06,05,33,-1.60
2020,03,06,05,34,-1.60
2020,03,06,05,35,-1.60
2020,03,06,05,36,-1.60
2020,03,06,05,37,-1.60
2020,03,06,05,38,-1.60
2020,03,06,05,39,-1.70
2020,03,06,05,40,-1.70
2020,03,06,05,41,-1.60
2020,03,06,05,42,-1.60
2020,03,06,05,43,-1.60
2020,03,06,05,44,-1.60
2020,03,06,05,45,-1.60
2020,03,06,05,46,-1.50
2020,03,06,05,47,-1.60
2020,03,06,05,48,-1.60
2020,03,06,05,49,-1.50
2020,03,06,05,50,-1.50
2020,03,06,05,51,-1.50
2020,03,06,05,52,-1.40
2020,03,06,05,53,-1.40
2020,03,06,05,54,-1.40
2020,03,06,05,55,-1.50
2020,03,06,05,56,-1.50
2020,03,06,05,57,-1.50
2020,03,06,05,58,-1.50
2020,03,06,05,59,-1.40
2020,03,06,06,00,-1.40
2020,03,06,06,01,-1.40
2020,03,06,06,02,-1.30
2020,03,06,06,03,-1.30
2020,03,06,06,04,-1.30
2020,03,06,06,05,-1.30
2020,03,06,06,06,-1.30
2020,03,06,06,07,-1.30
2020,03,06,06,08,-1.30
2020,03,06,06,09,-1.40
2020,03,06,06,10,-1.40
2020,03,06,06,11,-1.40
2020,03,06,06,12,-1.50
2020,03,06,06,13,-1.50
2020,03,06,06,14,-1.60
2020,03,06,06,15,-1.60
2020,03,06,06,16,-1.60
2020,03,06,06,17,-1.60
2020,03,06,06,18,-1.60
2020,03,06,06,19,-1.70
2020,03,06,06,20,-1.70
2020,03,06,06,21,-1.70
2020,03,06,06,22,-1.70
2020,03,06,06,23,-1.70
2020,03,06,06,24,-1.70
2020,03,06,06,25,-1.70
2020,03,06,06,26,-1.70
2020,03,06,06,27,-1.70
2020,03,06,06,28,-1.70
2020,03,06,06,29,-1.80
2020,03,06,06,30,-1.80
2020,03,06,06,31,-1.80
2020,03,06,06,32,-1.80
2020,03,06,06,33,-1.90
2020,03,06,06,34,-1.90
2020,03,06,06,35,-1.90
2020,03,06,06,36,-1.90
2020,03,06,06,37,-1.90
2020,03,06,06,38,-1.90
2020,03,06,06,39,-2.00
2020,03,06,06,40,-2.00
2020,03,06,06,41,-2.10
2020,03,06,06,42,-2.10
2020,03,06,06,43,-2.00
2020,03,06,06,44,-2.00
2020,03,06,06,45,-2.00
2020,03,06,06,46,-1.90
2020,03,06,06,47,-1.90
2020,03,06,06,48,-1.90
2020,03,06,06,49,-1.90
2020,03,06,06,50,-1.90
2020,03,06,06,51,-1.90
2020,03,06,06,52,-1.90
2020,03,06,06,53,-1.90
2020,03,06,06,54,-1.90
2020,03,06,06,55,-1.80
2020,03,06,06,56,-1.80
2020,03,06,06,57,-1.80
2020,03,06,06,58,-1.70
2020,03,06,06,59,-1.70
2020,03,06,07,00,-1.70
2020,03,06,07,01,-1.70
2020,03,06,07,02,-1.80
2020,03,06,07,03,-1.80
2020,03,06,07,04,-1.80
2020,03,06,07,05,-1.80
2020,03,06,07,06,-1.90
2020,03,06,07,07,-1.90
2020,03,06,07,08,-1.90
2020,03,06,07,09,-1.90
2020,03,06,07,10,-2.00
2020,03,06,07,11,-2.00
2020,03,06,07,12,-2.00
2020,03,06,07,13,-2.00
2020,03,06,07,14,-2.00
2020,03,06,07,15,-2.00
2020,03,06,07,16,-2.00
2020,03,06,07,17,-2.00
2020,03,06,07,18,-2.00
2020,03,06,07,19,-1.90
2020,03,06,07,20,-1.80
2020,03,06,07,21,-1.70
2020,03,06,07,22,-1.60
2020,03,06,07,23,-1.50
2020,03,06,07,24,-1.40
2020,03,06,07,25,-1.40
2020,03,06,07,26,-1.40
2020,03,06,07,27,-1.30
2020,03,06,07,28,-1.30
2020,03,06,07,29,-1.30
2020,03,06,07,30,-1.30
2020,03,06,07,31,-1.30
2020,03,06,07,32,-1.30
2020,03,06,07,33,-1.20
2020,03,06,07,34,-1.20
2020,03,06,07,35,-1.10
2020,03,06,07,36,-1.10
2020,03,06,07,37,-1.00
2020,03,06,07,38,-0.90
2020,03,06,07,39,-0.80
2020,03,06,07,40,-0.70
2020,03,06,07,41,-0.70
2020,03,06,07,42,-0.60
2020,03,06,07,43,-0.60
2020,03,06,07,44,-0.50
2020,03,06,07,45,-0.50
2020,03,06,07,46,-0.40
2020,03,06,07,47,-0.40
2020,03,06,07,48,-0.40
2020,03,06,07,49,-0.40
2020,03,06,07,50,-0.40
2020,03,06,07,51,-0.40
2020,03,06,07,52,-0.40
2020,03,06,07,53,-0.40
2020,03,06,07,54,-0.40
2020,03,06,07,55,-0.40
2020,03,06,07,56,-0.40
2020,03,06,07,57,-0.40
2020,03,06,07,58,-0.40
2020,03,06,07,59,-0.40
2020,03,06,08,00,-0.40
2020,03,06,08,01,-0.50
2020,03,06,08,02,-0.50
2020,03,06,08,03,-0.40
2020,03,06,08,04,-0.40
2020,03,06,08,05,-0.50
2020,03,06,08,06,-0.50
2020,03,06,08,07,-0.50
2020,03,06,08,08,-0.50
2020,03,06,08,09,-0.50
2020,03,06,08,10,-0.60
2020,03,06,08,11,-0.60
2020,03,06,08,12,-0.60
2020,03,06,08,13,-0.60
2020,03,06,08,14,-0.60
2020,03,06,08,15,-0.60
2020,03,06,08,16,-0.50
2020,03,06,08,17,-0.50
2020,03,06,08,18,-0.50
2020,03,06,08,19,-0.40
2020,03,06,08,20,-0.40
2020,03,06,08,21,-0.30
2020,03,06,08,22,-0.30
2020,03,06,08,23,-0.30
2020,03,06,08,24,-0.20
2020,03,06,08,25,-0.20
2020,03,06,08,26,-0.20
2020,03,06,08,27,-0.20
2020,03,06,08,28,-0.20
2020,03,06,08,29,-0.20
2020,03,06,08,30,-0.20
2020,03,06,08,31,-0.10
2020,03,06,08,32,-0.10
2020,03,06,08,33,0.00
2020,03,06,08,34,0.00
2020,03,06,08,35,0.10
2020,03,06,08,36,0.10
2020,03,06,08,37,0.10
2020,03,06,08,38,0.20
2020,03,06,08,39,0.20
2020,03,06,08,40,0.20
2020,03,06,08,41,0.30
2020,03,06,08,42,0.30
2020,03,06,08,43,0.30
2020,03,06,08,44,0.40
2020,03,06,08,45,0.40
2020,03,06,08,46,0.40
2020,03,06,08,47,0.40
2020,03,06,08,48,0.40
2020,03,06,08,49,0.40
2020,03,06,08,50,0.50
2020,03,06,08,51,0.50
2020,03,06,08,52,0.60
2020,03,06,08,53,0.60
2020,03,06,08,54,0.70
2020,03,06,08,55,0.70
2020,03,06,08,56,0.80
2020,03,06,08,57,0.80
2020,03,06,08,58,0.90
2020,03,06,08,59,0.90
2020,03,06,09,00,0.90
2020,03,06,09,01,1.00
2020,03,06,09,02,1.00
2020,03,06,09,03,1.00
2020,03,06,09,04,1.10
2020,03,06,09,05,1.10
2020,03,06,09,06,1.10
2020,03,06,09,07,1.10
2020,03,06,09,08,1.00
2020,03,06,09,09,1.00
2020,03,06,09,10,1.00
2020,03,06,09,11,1.00
2020,03,06,09,12,1.00
2020,03,06,09,13,1.00
2020,03,06,09,14,1.10
2020,03,06,09,15,1.10
2020,03,06,09,16,1.00
2020,03,06,09,17,1.00
2020,03,06,09,18,1.00
2020,03,06,09,19,1.00
2020,03,06,09,20,1.00
2020,03,06,09,21,1.00
2020,03,06,09,22,1.00
2020,03,06,09,23,1.00
2020,03,06,09,24,1.00
2020,03,06,09,25,1.10
2020,03,06,09,26,1.10
2020,03,06,09,27,1.10
2020,03,06,09,28,1.10
2020,03,06,09,29,1.20
2020,03,06,09,30,1.20
2020,03,06,09,31,1.20
2020,03,06,09,32,1.20
2020,03,06,09,33,1.30
2020,03,06,09,34,1.30
2020,03,06,09,35,1.30
2020,03,06,09,36,1.30
2020,03,06,09,37,1.30
2020,03,06,09,38,1.30
2020,03,06,09,39,1.40
2020,03,06,09,40,1.40
2020,03,06,09,41,1.40
2020,03,06,09,42,1.40
2020,03,06,09,43,1.50
2020,03,06,09,44,1.50
2020,03,06,09,45,1.50
2020,03,06,09,46,1.60
2020,03,06,09,47,1.60
2020,03,06,09,48,1.60
2020,03,06,09,49,1.60
2020,03,06,09,50,1.70
2020,03,06,09,51,1.70
2020,03,06,09,52,1.70
2020,03,06,09,53,1.80
2020,03,06,09,54,1.80
2020,03,06,09,55,1.80
2020,03,06,09,56,1.90
2020,03,06,09,57,2.00
2020,03,06,09,58,2.10
2020,03,06,09,59,2.10
2020,03,06,10,00,2.20
2020,03,06,10,01,2.30
2020,03,06,10,02,2.30
2020,03,06,10,03,2.40
2020,03,06,10,04,2.50
2020,03,06,10,05,2.50
2020,03,06,10,06,2.60
2020,03,06,10,07,2.70
2020,03,06,10,08,2.70
2020,03,06,10,09,2.70
2020,03,06,10,10,2.70
2020,03,06,10,11,2.80
2020,03,06,10,12,2.80
2020,03,06,10,13,2.80
2020,03,06,10,14,2.80
2020,03,06,10,15,2.80
2020,03,06,10,16,2.80
2020,03,06,10,17,2.90
2020,03,06,10,18,2.90
2020,03,06,10,19,3.00
2020,03,06,10,20,3.00
2020,03,06,10,21,3.10
2020,03,06,10,22,3.20
2020,03,06,10,23,3.30
2020,03,06,10,24,3.40
2020,03,06,10,25,3.40
2020,03,06,10,26,3.40
2020,03,06,10,27,3.40
2020,03,06,10,28,3.40
2020,03,06,10,29,3.40
2020,03,06,10,30,3.40
2020,03,06,10,31,3.50
2020,03,06,10,32,3.60
2020,03,06,10,33,3.70
2020,03,06,10,34,3.70
2020,03,06,10,35,3.60
2020,03,06,10,36,3.60
2020,03,06,10,37,3.60
2020,03,06,10,38,3.60
2020,03,06,10,39,3.60
2020,03,06,10,40,3.70
2020,03,06,10,41,3.70
2020,03,06,10,42,3.80
2020,03,06,10,43,3.80
2020,03,06,10,44,3.80
2020,03,06,10,45,3.90
2020,03,06,10,46,4.10
2020,03,06,10,47,4.10
2020,03,06,10,48,4.20
2020,03,06,10,49,4.20
2020,03,06,10,50,4.30
2020,03,06,10,51,4.30
2020,03,06,10,52,4.30
2020,03,06,10,53,4.20
2020,03,06,10,54,4.20
2020,03,06,10,55,4.30
2020,03,06,10,56,4.40
2020,03,06,10,57,4.40
2020,03,06,10,58,4.40
2020,03,06,10,59,4.40
2020,03,06,11,00,4.50
2020,03,06,11,01,4.50
2020,03,06,11,02,4.50
2020,03,06,11,03,4.50
2020,03,06,11,04,4.60
2020,03,06,11,05,4.60
2020,03,06,11,06,4.60
2020,03,06,11,07,4.60
2020,03,06,11,08,4.70
2020,03,06,11,09,4.60
2020,03,06,11,10,4.60
2020,03,06,11,11,4.60
2020,03,06,11,12,4.60
2020,03,06,11,13,4.60
2020,03,06,11,14,4.60
2020,03,06,11,15,4.60
2020,03,06,11,16,4.60
2020,03,06,11,17,4.70
2020,03,06,11,18,4.70
2020,03,06,11,19,4.70
2020,03,06,11,20,4.80
2020,03,06,11,21,4.80
2020,03,06,11,22,4.80
2020,03,06,11,23,4.90
2020,03,06,11,24,4.90
2020,03,06,11,25,4.90
2020,03,06,11,26,5.00
2020,03,06,11,27,5.00
2020,03,06,11,28,5.10
2020,03,06,11,29,5.10
2020,03,06,11,30,5.10
2020,03,06,11,31,5.10
2020,03,06,11,32,5.10
2020,03,06,11,33,5.10
2020,03,06,11,34,5.10
2020,03,06,11,35,5.10
2020,03,06,11,36,5.10
2020,03,06,11,37,5.10
2020,03,06,11,38,5.20
2020,03,06,11,39,5.30
2020,03,06,11,40,5.30
2020,03,06,11,41,5.40
2020,03,06,11,42,5.50
2020,03,06,11,43,5.50
2020,03,06,11,44,5.50
2020,03,06,11,45,5.60
2020,03,06,11,46,5.60
2020,03,06,11,47,5.60
2020,03,06,11,48,5.60
2020,03,06,11,49,5.60
2020,03,06,11,50,5.60
2020,03,06,11,51,5.60
2020,03,06,11,52,5.60
2020,03,06,11,53,5.60
2020,03,06,11,54,5.60
2020,03,06,11,55,5.60
2020,03,06,11,56,5.70
2020,03,06,11,57,5.80
2020,03,06,11,58,5.70
2020,03,06,11,59,5.70
2020,03,06,12,00,5.60
2020,03,06,12,01,5.60
2020,03,06,12,02,5.60
2020,03,06,12,03,5.70
2020,03,06,12,04,5.70
2020,03,06,12,05,5.70
2020,03,06,12,06,5.70
2020,03,06,12,07,5.70
2020,03,06,12,08,5.70
2020,03,06,12,09,5.70
2020,03,06,12,10,5.70
2020,03,06,12,11,5.60
2020,03,06,12,12,5.50
2020,03,06,12,13,5.50
2020,03,06,12,14,5.40
2020,03,06,12,15,5.50
2020,03,06,12,16,5.50
2020,03,06,12,17,5.50
2020,03,06,12,18,5.60
2020,03,06,12,19,5.60
2020,03,06,12,20,5.70
2020,03,06,12,21,5.80
2020,03,06,12,22,5.80
2020,03,06,12,23,5.80
2020,03,06,12,24,5.90
2020,03,06,12,25,5.90
2020,03,06,12,26,5.90
2020,03,06,12,27,5.90
2020,03,06,12,28,5.90
2020,03,06,12,29,5.90
2020,03,06,12,30,5.90
2020,03,06,12,31,5.80
2020,03,06,12,32,5.80
2020,03,06,12,33,5.80
2020,03,06,12,34,5.90
2020,03,06,12,35,5.90
2020,03,06,12,36,5.90
2020,03,06,12,37,6.00
2020,03,06,12,38,5.90
2020,03,06,12,39,5.90
2020,03,06,12,40,5.90
2020,03,06,12,41,5.80
2020,03,06,12,42,5.80
2020,03,06,12,43,5.80
2020,03,06,12,44,5.80
2020,03,06,12,45,5.90
2020,03,06,12,46,6.00
2020,03,06,12,47,6.00
2020,03,06,12,48,6.00
2020,03,06,12,49,6.00
2020,03,06,12,50,6.00
2020,03,06,12,51,6.00
2020,03,06,12,52,6.00
2020,03,06,12,53,6.00
2020,03,06,12,54,5.80
2020,03,06,12,55,5.70
2020,03,06,12,56,5.70
2020,03,06,12,57,5.60
2020,03,06,12,58,5.60
2020,03,06,12,59,5.60
2020,03,06,13,00,5.60
2020,03,06,13,01,5.70
2020,03,06,13,02,5.80
2020,03,06,13,03,5.90
2020,03,06,13,04,6.00
2020,03,06,13,05,6.00
2020,03,06,13,06,6.10
2020,03,06,13,07,6.20
2020,03,06,13,08,6.20
2020,03,06,13,09,6.20
2020,03,06,13,10,6.30
2020,03,06,13,11,6.20
2020,03,06,13,12,6.20
2020,03,06,13,13,6.00
2020,03,06,13,14,5.90
2020,03,06,13,15,5.80
2020,03,06,13,16,5.80
2020,03,06,13,17,5.80
2020,03,06,13,18,5.80
2020,03,06,13,19,5.80
2020,03,06,13,20,5.80
2020,03,06,13,21,5.80
2020,03,06,13,22,5.80
2020,03,06,13,23,5.80
2020,03,06,13,24,5.80
2020,03,06,13,25,5.80
2020,03,06,13,26,5.80
2020,03,06,13,27,5.70
2020,03,06,13,28,5.70
2020,03,06,13,29,5.60
2020,03,06,13,30,5.60
2020,03,06,13,31,5.60
2020,03,06,13,32,5.60
2020,03,06,13,33,5.60
2020,03,06,13,34,5.70
2020,03,06,13,35,5.70
2020,03,06,13,36,5.70
2020,03,06,13,37,5.80
2020,03,06,13,38,5.70
2020,03,06,13,39,5.70
2020,03,06,13,40,5.70
2020,03,06,13,41,5.70
2020,03,06,13,42,5.70
2020,03,06,13,43,5.70
2020,03,06,13,44,5.70
2020,03,06,13,45,5.70
2020,03,06,13,46,5.70
2020,03,06,13,47,5.60
2020,03,06,13,48,5.60
2020,03,06,13,49,5.60
2020,03,06,13,50,5.60
2020,03,06,13,51,5.70
2020,03,06,13,52,5.70
2020,03,06,13,53,5.70
2020,03,06,13,54,5.70
2020,03,06,13,55,5.70
2020,03,06,13,56,5.70
2020,03,06,13,57,5.70
2020,03,06,13,58,5.60
2020,03,06,13,59,5.60
2020,03,06,14,00,5.50
2020,03,06,14,01,5.50
2020,03,06,14,02,5.50
2020,03,06,14,03,5.50
2020,03,06,14,04,5.50
2020,03,06,14,05,5.50
2020,03,06,14,06,5.50
2020,03,06,14,07,5.50
2020,03,06,14,08,5.50
2020,03,06,14,09,5.50
2020,03,06,14,10,5.50
2020,03,06,14,11,5.40
2020,03,06,14,12,5.40
2020,03,06,14,13,5.30
2020,03,06,14,14,5.30
2020,03,06,14,15,5.30
2020,03,06,14,16,5.20
2020,03,06,14,17,5.20
2020,03,06,14,18,5.20
2020,03,06,14,19,5.20
2020,03,06,14,20,5.20
2020,03,06,14,21,5.30
2020,03,06,14,22,5.30
2020,03,06,14,23,5.30
2020,03,06,14,24,5.30
2020,03,06,14,25,5.30
2020,03,06,14,26,5.30
2020,03,06,14,27,5.20
2020,03,06,14,28,5.20
2020,03,06,14,29,5.30
2020,03,06,14,30,5.30
2020,03,06,14,31,5.30
2020,03,06,14,32,5.30
2020,03,06,14,33,5.20
2020,03,06,14,34,5.20
2020,03,06,14,35,5.20
2020,03,06,14,36,5.10
2020,03,06,14,37,5.10
2020,03,06,14,38,5.10
2020,03,06,14,39,5.10
2020,03,06,14,40,5.10
2020,03,06,14,41,5.20
2020,03,06,14,42,5.20
2020,03,06,14,43,5.20
2020,03,06,14,44,5.30
2020,03,06,14,45,5.30
2020,03,06,14,46,5.30
2020,03,06,14,47,5.30
2020,03,06,14,48,5.30
2020,03,06,14,49,5.20
2020,03,06,14,50,5.20
2020,03,06,14,51,5.20
2020,03,06,14,52,5.20
2020,03,06,14,53,5.30
2020,03,06,14,54,5.30
2020,03,06,14,55,5.30
2020,03,06,14,56,5.30
2020,03,06,14,57,5.30
2020,03,06,14,58,5.30
2020,03,06,14,59,5.40
2020,03,06,15,00,5.40
2020,03,06,15,01,5.40
2020,03,06,15,02,5.30
2020,03,06,15,03,5.30
2020,03,06,15,04,5.30
2020,03,06,15,05,5.30
2020,03,06,15,06,5.30
2020,03,06,15,07,5.30
2020,03,06,15,08,5.30
2020,03,06,15,09,5.30
2020,03,06,15,10,5.20
2020,03,06,15,11,5.20
2020,03,06,15,12,5.20
2020,03,06,15,13,5.20
2020,03,06,15,14,5.20
2020,03,06,15,15,5.20
2020,03,06,15,16,5.20
2020,03,06,15,17,5.20
2020,03,06,15,18,5.20
2020,03,06,15,19,5.30
2020,03,06,15,20,5.30
2020,03,06,15,21,5.30
2020,03,06,15,22,5.30
2020,03,06,15,23,5.20
2020,03,06,15,24,5.20
2020,03,06,15,25,5.30
2020,03,06,15,26,5.30
2020,03,06,15,27,5.30
2020,03,06,15,28,5.30
2020,03,06,15,29,5.30
2020,03,06,15,30,5.30
2020,03,06,15,31,5.30
2020,03,06,15,32,5.30
2020,03,06,15,33,5.20
2020,03,06,15,34,5.20
2020,03,06,15,35,5.20
2020,03,06,15,36,5.20
2020,03,06,15,37,5.20
2020,03,06,15,38,5.20
2020,03,06,15,39,5.20
2020,03,06,15,40,5.20
2020,03,06,15,41,5.30
2020,03,06,15,42,5.30
2020,03,06,15,43,5.30
2020,03,06,15,44,5.30
2020,03,06,15,45,5.30
2020,03,06,15,46,5.30
2020,03,06,15,47,5.40
2020,03,06,15,48,5.40
2020,03,06,15,49,5.40
2020,03,06,15,50,5.40
2020,03,06,15,51,5.40
2020,03,06,15,52,5.40
2020,03,06,15,53,5.50
2020,03,06,15,54,5.50
2020,03,06,15,55,5.60
2020,03,06,15,56,5.60
2020,03,06,15,57,5.60
2020,03,06,15,58,5.60
2020,03,06,15,59,5.70
2020,03,06,16,00,5.70
2020,03,06,16,01,5.70
2020,03,06,16,02,5.80
2020,03,06,16,03,5.80
2020,03,06,16,04,5.80
2020,03,06,16,05,5.80
2020,03,06,16,06,5.80
2020,03,06,16,07,5.80
2020,03,06,16,08,5.70
2020,03,06,16,09,5.70
2020,03,06,16,10,5.70
2020,03,06,16,11,5.70
2020,03,06,16,12,5.70
2020,03,06,16,13,5.70
2020,03,06,16,14,5.70
2020,03,06,16,15,5.70
2020,03,06,16,16,5.70
2020,03,06,16,17,5.70
2020,03,06,16,18,5.70
2020,03,06,16,19,5.70
2020,03,06,16,20,5.60
2020,03,06,16,21,5.60
2020,03,06,16,22,5.70
2020,03,06,16,23,5.70
2020,03,06,16,24,5.70
2020,03,06,16,25,5.70
2020,03,06,16,26,5.80
2020,03,06,16,27,5.80
2020,03,06,16,28,5.80
2020,03,06,16,29,5.80
2020,03,06,16,30,5.80
2020,03,06,16,31,5.80
2020,03,06,16,32,5.80
2020,03,06,16,33,5.80
2020,03,06,16,34,5.80
2020,03,06,16,35,5.80
2020,03,06,16,36,5.80
2020,03,06,16,37,5.80
2020,03,06,16,38,5.70
2020,03,06,16,39,5.70
2020,03,06,16,40,5.70
2020,03,06,16,41,5.70
2020,03,06,16,42,5.70
2020,03,06,16,43,5.70
2020,03,06,16,44,5.70
2020,03,06,16,45,5.70
2020,03,06,16,46,5.70
2020,03,06,16,47,5.70
2020,03,06,16,48,5.70
2020,03,06,16,49,5.70
2020,03,06,16,50,5.70
2020,03,06,16,51,5.70
2020,03,06,16,52,5.60
2020,03,06,16,53,5.60
2020,03,06,16,54,5.60
2020,03,06,16,55,5.60
2020,03,06,16,56,5.60
2020,03,06,16,57,5.50
2020,03,06,16,58,5.50
2020,03,06,16,59,5.50
2020,03,06,17,00,5.50
2020,03,06,17,01,5.50
2020,03,06,17,02,5.40
2020,03,06,17,03,5.40
2020,03,06,17,04,5.40
2020,03,06,17,05,5.40
2020,03,06,17,06,5.40
2020,03,06,17,07,5.40
2020,03,06,17,08,5.40
2020,03,06,17,09,5.40
2020,03,06,17,10,5.40
2020,03,06,17,11,5.40
2020,03,06,17,12,5.40
2020,03,06,17,13,5.40
2020,03,06,17,14,5.40
2020,03,06,17,15,5.40
2020,03,06,17,16,5.40
2020,03,06,17,17,5.40
2020,03,06,17,18,5.30
2020,03,06,17,19,5.30
2020,03,06,17,20,5.30
2020,03,06,17,21,5.30
2020,03,06,17,22,5.30
2020,03,06,17,23,5.30
2020,03,06,17,24,5.20
2020,03,06,17,25,5.20
2020,03,06,17,26,5.20
2020,03,06,17,27,5.20
2020,03,06,17,28,5.20
2020,03,06,17,29,5.20
2020,03,06,17,30,5.20
2020,03,06,17,31,5.10
2020,03,06,17,32,5.10
2020,03,06,17,33,5.10
2020,03,06,17,34,5.10
2020,03,06,17,35,5.00
2020,03,06,17,36,5.00
2020,03,06,17,37,5.00
2020,03,06,17,38,4.90
2020,03,06,17,39,4.90
2020,03,06,17,40,4.90
2020,03,06,17,41,4.90
2020,03,06,17,42,4.90
2020,03,06,17,43,4.80
2020,03,06,17,44,4.80
2020,03,06,17,45,4.80
2020,03,06,17,46,4.80
2020,03,06,17,47,4.80
2020,03,06,17,48,4.80